Location: Miami
(25.6830°N, 80.1700°W)
Time: 04:24:22
(UTC-04:00)

Amateur Radio Satellites - All Passes

Search period start: 21 November 2017 03:54
Search period end: 22 November 2017 03:54
Location: Miami, 25.6830°N, 80.1700°W

Satellite Date Start Highest point End Downlink Frequencies (MHz)
Time Altitude Azimuth
BEESAT 3 21 Nov 04:04:52 04:08:11 25° 300° (WNW) 04:11:32 437.485
BEESAT 21 Nov 04:11:30 04:16:17 88° 258° (WSW) 04:21:04 436.000
ITUPSAT 1 21 Nov 04:21:02 04:25:48 70° 258° (WSW) 04:30:34 437.325
AO-85 21 Nov 04:22:57 04:26:22 31° 112° (ESE) 04:29:50 145.980
M-CUBED/EXP-1 PRIME 21 Nov 04:34:28 04:38:43 37° 290° (WNW) 04:42:58 437.505
MOZHAYETS 4 21 Nov 04:36:56 04:40:58 31° 262° (W) 04:44:59
RS-15 21 Nov 04:41:08 04:51:53 40° 56° (NE) 05:02:04 29.354- 29.394
ITAMSAT 1 21 Nov 04:46:20 04:51:28 59° 102° (ESE) 04:56:33 435.822/435.867
CUBESAT XI-V 21 Nov 04:47:11 04:51:40 60° 76° (ENE) 04:56:12 437.345
KKS-1 21 Nov 04:55:47 04:57:58 14° 70° (ENE) 05:00:10 437.445
nSIGHT-1 21 Nov 04:58:59 05:01:10 17° 42° (NE) 05:03:20 .
AO-7 21 Nov 05:11:37 05:19:56 73° 289° (WNW) 05:28:15 .
BEESAT 2 21 Nov 05:16:44 05:19:08 15° 303° (WNW) 05:21:34 435.950
YUBILEINY 21 Nov 05:23:19 05:29:04 20° 84° (E) 05:34:49 435.215
DOVE 4 21 Nov 05:31:18 05:35:24 25° 96° (E) 05:39:18 437.250
ISS 21 Nov 05:41:28 05:44:35 42° 46° (NE) 05:47:41 437.550
AO-85 21 Nov 06:05:08 06:06:47 12° 305° (NW) 06:08:27 145.980
CUTE-I 21 Nov 06:20:00 06:21:38 11° 95° (E) 06:23:14 437.470
XW-2C 21 Nov 06:20:58 06:22:10 11° 95° (E) 06:23:22 145.795 - 145.815
LilacSat-2 21 Nov 06:22:04 06:23:57 13° 96° (E) 06:25:50 437.200
ITAMSAT 1 21 Nov 06:28:47 06:30:20 11° 293° (WNW) 06:31:53 435.822/435.867
KKS-1 21 Nov 06:30:00 06:34:07 37° 261° (W) 06:38:16 437.445
XW-2F 21 Nov 06:30:55 06:33:06 15° 96° (E) 06:35:16 145.980 - 146.000
nSIGHT-1 21 Nov 06:34:45 06:37:19 23° 234° (SW) 06:39:53 .
RS-15 21 Nov 06:53:31 07:04:09 46° 253° (WSW) 07:14:21 29.354- 29.394
STARS 21 Nov 06:54:26 06:58:45 53° 259° (W) 07:03:05 437.465
KAITUO 1B 21 Nov 06:58:08 07:01:21 26° 98° (E) 07:04:34 145.475/437.950
DOVE 4 21 Nov 07:08:50 07:12:52 24° 289° (WNW) 07:16:44 437.250
AO-7 21 Nov 07:10:14 07:11:18 10° 303° (WNW) 07:12:21 .
XW-2D 21 Nov 07:12:09 07:15:58 71° 101° (ESE) 07:19:45 145.860 - 145.880
STRAND 1 21 Nov 07:16:12 07:19:56 21° 70° (ENE) 07:23:39 437.568
YUBILEINY 21 Nov 07:16:26 07:25:01 62° 277° (W) 07:33:42 435.215
HO-68 21 Nov 07:19:47 07:25:18 24° 98° (E) 07:30:46 435.675
XW-2B 21 Nov 07:26:58 07:30:46 73° 283° (WNW) 07:34:35 145.730 - 145.750
NUDT-PHONESAT 21 Nov 07:42:33 07:46:14 65° 282° (WNW) 07:49:55 437.300
SO-50 21 Nov 07:44:40 07:48:19 22° 58° (ENE) 07:51:59 436.795
XW-2C 21 Nov 07:52:59 07:56:18 29° 285° (WNW) 07:59:37 145.795 - 145.815
CUTE 1.7 + AOD 2 21 Nov 07:53:55 07:57:58 41° 99° (E) 08:02:00 437.475
LilacSat-2 21 Nov 07:54:57 07:58:08 25° 286° (WNW) 08:01:19 437.200
CUTE-I 21 Nov 07:56:36 08:01:51 58° 285° (WNW) 08:07:03 437.470
XW-2F 21 Nov 08:04:04 08:07:04 22° 286° (WNW) 08:10:03 145.980 - 146.000
UWE-3 21 Nov 08:10:55 08:13:36 17° 96° (E) 08:16:19 435.000/436.395/437.385
SEEDS 21 Nov 08:24:28 08:28:40 59° 100° (E) 08:32:50 437.485
FO-29 21 Nov 08:29:29 08:34:51 29° 68° (ENE) 08:40:45 435.910
AAUSAT CUBESAT 2 21 Nov 08:32:05 08:35:36 26° 98° (E) 08:39:07 437.432
KAITUO 1B 21 Nov 08:33:24 08:34:59 12° 288° (WNW) 08:36:36 145.475/437.950
CUBEBUG 2 21 Nov 08:49:01 08:53:08 68° 283° (WNW) 08:57:14 437.445
FALCONSAT 3 21 Nov 08:49:12 08:52:19 26° 147° (SSE) 08:55:27 435.103
AO-73 21 Nov 08:51:54 08:55:16 24° 98° (E) 08:58:39 145.935
STRAND 1 21 Nov 08:54:14 08:58:48 32° 261° (W) 09:03:24 437.568
XW-2A 21 Nov 09:05:51 09:09:13 75° 281° (W) 09:12:35 145.665 - 145.685
HO-68 21 Nov 09:06:16 09:13:03 47° 289° (WNW) 09:19:48 435.675
Oscar 11 21 Nov 09:08:22 09:11:57 25° 97° (E) 09:15:31 .
SO-50 21 Nov 09:24:42 09:28:40 27° 249° (WSW) 09:32:39 436.795
CUTE 1.7 + AOD 2 21 Nov 09:32:18 09:33:20 11° 290° (WNW) 09:34:23 437.475
ZACube-1 21 Nov 09:36:16 09:40:24 70° 282° (WNW) 09:44:34 437.345
UWE-3 21 Nov 09:46:38 09:49:56 23° 286° (WNW) 09:53:15 435.000/436.395/437.385
PCSat 21 Nov 10:07:10 10:10:15 15° 57° (ENE) 10:13:19 145.827
AAUSAT CUBESAT 2 21 Nov 10:08:12 10:10:46 16° 288° (WNW) 10:13:19 437.432
Max Valier Satellite 21 Nov 10:10:26 10:12:24 14° 96° (E) 10:14:22 145.860
FO-29 21 Nov 10:14:02 10:19:36 35° 264° (W) 10:25:51 435.910
UNISAT 6 21 Nov 10:17:46 10:22:17 55° 76° (ENE) 10:26:43 437.425
TIGRISAT 21 Nov 10:22:07 10:26:38 56° 76° (ENE) 10:31:04 435.000
FALCONSAT 3 21 Nov 10:27:42 10:31:17 50° 338° (NNW) 10:34:52 435.103
AO-73 21 Nov 10:28:31 10:31:15 17° 288° (WNW) 10:34:01 145.935
DELFI C3 21 Nov 10:37:23 10:41:20 59° 100° (E) 10:45:14 145.870
Oscar 11 21 Nov 10:44:53 10:47:49 18° 288° (WNW) 10:50:46 .
PRISM 21 Nov 11:16:43 11:20:48 88° 250° (WSW) 11:24:57 437.425
AIST 2D 21 Nov 11:38:02 11:41:13 36° 76° (ENE) 11:44:25 435.315
EO-88 21 Nov 11:40:59 11:44:19 34° 285° (WNW) 11:47:39 145.990 - 145.960
EO-79 21 Nov 11:43:07 11:45:17 14° 71° (ENE) 11:47:26 145.935-145.965
Max Valier Satellite 21 Nov 11:43:15 11:46:05 21° 286° (WNW) 11:48:56 145.860
NANOSAT C BR1 21 Nov 11:46:31 11:48:29 13° 70° (ENE) 11:50:26 145.865
PCSat 21 Nov 11:48:37 11:53:51 51° 250° (WSW) 11:59:03 145.827
ESTCUBE 1 21 Nov 11:57:03 12:00:28 21° 97° (E) 12:03:51 437.505/2401.250
POLYITAN 1 21 Nov 11:57:19 12:00:31 21° 73° (ENE) 12:03:44 437.675
LO-87 21 Nov 12:05:08 12:08:23 35° 99° (E) 12:11:37 145.935 - 145.965
FALCONSAT 3 21 Nov 12:08:04 12:10:50 20° 352° (N) 12:13:36 435.103
QB50P2 21 Nov 12:19:39 12:23:44 47° 76° (ENE) 12:27:49 145.880/145.840
BEESAT 3 21 Nov 12:29:50 12:31:49 13° 57° (ENE) 12:33:47 437.485
DUCHIFAT 1 21 Nov 13:08:58 13:13:07 55° 259° (W) 13:17:15 145.980
SPROUT 21 Nov 13:12:52 13:16:43 34° 99° (E) 13:20:34 437.525
EO-79 21 Nov 13:16:53 13:20:40 32° 261° (W) 13:24:29 145.935-145.965
NANOSAT C BR1 21 Nov 13:19:59 13:23:49 33° 261° (W) 13:27:38 145.865
JUGNU 21 Nov 13:32:51 13:36:49 18° 161° (SSE) 13:40:47 437.505
POLYITAN 1 21 Nov 13:32:56 13:36:06 20° 263° (W) 13:39:17 437.675
ESTCUBE 1 21 Nov 13:33:28 13:37:05 24° 288° (WNW) 13:40:42 437.505/2401.250
O/OREOS (USA 219) 21 Nov 13:36:48 13:40:52 32° 103° (ESE) 13:44:56 437.305
BEESAT 2 21 Nov 13:40:30 13:43:47 24° 59° (ENE) 13:47:01 435.950
FALCONSAT 3 21 Nov 13:47:56 13:50:40 19° 8° (N) 13:53:24 435.103
VELOX 1 21 Nov 13:52:25 13:56:50 68° 102° (ESE) 14:01:14 145.980
BUGSAT 1 21 Nov 14:00:45 14:04:55 61° 259° (W) 14:09:04 437.445
Oscar 19 21 Nov 14:03:03 14:08:05 61° 75° (ENE) 14:13:07 437.125/150
BEESAT 3 21 Nov 14:05:57 14:09:20 29° 249° (WSW) 14:12:41 437.485
AO-7 21 Nov 14:15:50 14:17:51 11° 57° (ENE) 14:19:52 .
Gurwin Techsat 1B 21 Nov 14:29:38 14:34:56 81° 76° (ENE) 14:40:16 435.225
NO-84 21 Nov 14:33:16 14:35:59 23° 121° (ESE) 14:38:54 435.350 FM
DX 1 21 Nov 14:37:26 14:41:36 42° 100° (E) 14:45:42 434.975-435.025
AO-85 21 Nov 14:40:15 14:45:01 52° 63° (ENE) 14:50:05 145.980
SPROUT 21 Nov 14:50:26 14:52:13 12° 290° (WNW) 14:54:01 437.525
M-CUBED/EXP-1 PRIME 21 Nov 15:12:25 15:15:48 68° 72° (ENE) 15:19:24 437.505
O/OREOS (USA 219) 21 Nov 15:17:25 15:20:15 16° 295° (WNW) 15:23:05 437.305
BEESAT 2 21 Nov 15:18:42 15:21:14 16° 251° (WSW) 15:23:45 435.950
UKube-1 21 Nov 15:18:51 15:23:10 86° 103° (ESE) 15:27:29 .
JUGNU 21 Nov 15:20:06 15:25:27 36° 169° (SSE) 15:30:46 437.505
50 SAT 21 Nov 15:22:13 15:24:54 25° 286° (WNW) 15:27:34 437.505
FALCONSAT 3 21 Nov 15:26:39 15:30:14 46° 22° (NNE) 15:33:48 435.103
ITAMSAT 1 21 Nov 15:56:14 16:01:03 39° 73° (ENE) 16:05:54 435.822/435.867
AO-7 21 Nov 16:01:02 16:09:17 77° 72° (ENE) 16:17:34 .
NO-84 21 Nov 16:10:38 16:13:13 19° 316° (NW) 16:15:56 435.350 FM
DX 1 21 Nov 16:16:02 16:17:18 11° 291° (WNW) 16:18:34 434.975-435.025
BEESAT 21 Nov 16:19:51 16:24:24 46° 100° (E) 16:28:56 436.000
AO-85 21 Nov 16:22:48 16:25:06 13° 252° (WSW) 16:27:27 145.980
ITUPSAT 1 21 Nov 16:29:38 16:34:19 59° 101° (E) 16:38:59 437.325
DOVE 4 21 Nov 16:30:48 16:31:52 11° 67° (ENE) 16:32:57 437.250
MOZHAYETS 4 21 Nov 16:39:19 16:43:51 70° 283° (WNW) 16:48:24
CUBESAT XI-V 21 Nov 16:52:04 16:56:08 29° 98° (E) 17:00:12 437.345
SRMSAT 21 Nov 17:05:23 17:10:03 24° 163° (SSE) 17:14:44 437.500
FALCONSAT 3 21 Nov 17:06:00 17:09:14 29° 213° (SSW) 17:12:28 435.103
JUGNU 21 Nov 17:08:33 17:14:11 48° 178° (S) 17:19:48 437.505
YUBILEINY 21 Nov 17:36:55 17:45:21 47° 81° (E) 17:53:41 435.215
ITAMSAT 1 21 Nov 17:37:15 17:40:31 17° 264° (W) 17:43:48 435.822/435.867
AO-7 21 Nov 17:58:05 18:02:27 15° 263° (W) 18:06:51 .
BEESAT 21 Nov 17:59:49 18:01:41 12° 292° (WNW) 18:03:34 436.000
XW-2B 21 Nov 18:01:25 18:03:36 15° 72° (ENE) 18:05:47 145.730 - 145.750
DOVE 4 21 Nov 18:04:03 18:08:50 60° 260° (W) 18:13:55 437.250
NUDT-PHONESAT 21 Nov 18:14:45 18:16:49 15° 73° (ENE) 18:18:55 437.300
XW-2C 21 Nov 18:25:42 18:29:05 34° 75° (ENE) 18:32:30 145.795 - 145.815
LilacSat-2 21 Nov 18:28:02 18:31:34 41° 76° (ENE) 18:35:07 437.200
KKS-1 21 Nov 18:28:32 18:33:00 81° 104° (ESE) 18:37:25 437.445
CUBESAT XI-V 21 Nov 18:29:59 18:33:13 19° 289° (WNW) 18:36:27 437.345
XW-2F 21 Nov 18:35:50 18:39:23 45° 76° (ENE) 18:42:56 145.980 - 146.000
CUTE 1.7 + AOD 2 21 Nov 18:41:43 18:42:15 10° 70° (ENE) 18:42:47 437.475
RS-15 21 Nov 18:51:27 19:03:15 59° 109° (ESE) 19:15:13 29.354- 29.394
STARS 21 Nov 18:51:42 18:55:58 52° 101° (E) 19:00:12 437.465
SRMSAT 21 Nov 18:53:19 18:58:52 42° 172° (S) 19:04:26 437.500
JUGNU 21 Nov 18:57:28 19:02:56 42° 188° (S) 19:08:24 437.505
KAITUO 1B 21 Nov 19:02:51 19:06:30 88° 82° (E) 19:10:11 145.475/437.950
SEEDS 21 Nov 19:09:40 19:11:49 14° 71° (ENE) 19:13:57 437.485
CUTE-I 21 Nov 19:09:51 19:15:12 80° 257° (WSW) 19:20:35 437.470
XW-2D 21 Nov 19:19:17 19:22:37 32° 261° (W) 19:25:58 145.860 - 145.880
HO-68 21 Nov 19:25:04 19:32:04 58° 72° (ENE) 19:39:05 435.675
YUBILEINY 21 Nov 19:34:34 19:41:36 28° 274° (W) 19:48:38 435.215
XW-2B 21 Nov 19:34:40 19:37:31 21° 263° (W) 19:40:22 145.730 - 145.750
STRAND 1 21 Nov 19:35:49 19:38:11 13° 95° (E) 19:40:32 437.568
CUBEBUG 2 21 Nov 19:38:29 19:42:43 35° 75° (ENE) 19:46:49 437.445
NUDT-PHONESAT 21 Nov 19:47:42 19:50:25 20° 263° (W) 19:53:10 437.300
nSIGHT-1 21 Nov 19:53:59 19:56:29 21° 126° (SE) 19:58:58 .
CUTE 1.7 + AOD 2 21 Nov 20:13:41 20:17:37 41° 261° (W) 20:21:35 437.475
ZACube-1 21 Nov 20:23:55 20:27:46 30° 75° (ENE) 20:31:31 437.345
UWE-3 21 Nov 20:33:59 20:38:31 88° 258° (WSW) 20:42:56 435.000/436.395/437.385
ISS 21 Nov 20:38:45 20:42:00 67° 130° (SE) 20:45:15 437.550
SRMSAT 21 Nov 20:42:06 20:47:48 49° 182° (S) 20:53:32 437.500
SEEDS 21 Nov 20:43:31 20:47:08 29° 262° (W) 20:50:48 437.485
JUGNU 21 Nov 20:46:59 20:51:34 24° 197° (SSW) 20:56:11 437.505
AAUSAT CUBESAT 2 21 Nov 20:48:11 20:52:15 72° 259° (W) 20:56:22 437.432
XW-2A 21 Nov 21:01:32 21:04:26 28° 262° (W) 21:07:20 145.665 - 145.685
RS-15 21 Nov 21:05:22 21:16:07 35° 306° (NW) 21:26:58 29.354- 29.394
STRAND 1 21 Nov 21:12:35 21:17:27 46° 286° (WNW) 21:22:17 437.568
AO-73 21 Nov 21:14:04 21:18:24 66° 260° (W) 21:22:38 145.935
HO-68 21 Nov 21:15:14 21:19:57 19° 263° (W) 21:24:42 435.675
CUBEBUG 2 21 Nov 21:16:44 21:19:16 14° 264° (W) 21:21:45 437.445
DELFI C3 21 Nov 21:17:13 21:18:05 11° 70° (ENE) 21:18:58 145.870
Oscar 11 21 Nov 21:29:53 21:34:08 66° 259° (W) 21:38:24 .
nSIGHT-1 21 Nov 21:30:15 21:32:36 19° 318° (NW) 21:34:58 .
FO-29 21 Nov 21:31:40 21:39:15 58° 100° (E) 21:46:09 435.910
SO-50 21 Nov 21:50:24 21:54:36 43° 112° (ESE) 21:58:50 436.795
ZACube-1 21 Nov 22:01:33 22:03:58 15° 264° (W) 22:06:22 437.345
EO-88 21 Nov 22:10:33 22:13:29 24° 74° (ENE) 22:16:26 145.990 - 145.960
Max Valier Satellite 21 Nov 22:13:01 22:16:28 41° 76° (ENE) 22:19:55 145.860
UNISAT 6 21 Nov 22:18:22 22:21:34 21° 97° (E) 22:24:45 437.425
TIGRISAT 21 Nov 22:22:32 22:25:45 21° 97° (E) 22:28:57 435.000
SRMSAT 21 Nov 22:31:18 22:36:43 37° 191° (SSW) 22:42:10 437.500
DELFI C3 21 Nov 22:48:49 22:52:25 34° 261° (W) 22:56:04 145.870
PRISM 21 Nov 23:06:29 23:09:51 24° 98° (E) 23:13:12 437.425
FO-29 21 Nov 23:18:00 23:23:31 22° 294° (WNW) 23:28:46 435.910
SO-50 21 Nov 23:33:05 23:35:11 13° 305° (NW) 23:37:18 436.795
EO-88 21 Nov 23:45:38 23:47:02 12° 265° (W) 23:48:25 145.990 - 145.960
UNISAT 6 21 Nov 23:54:56 23:58:05 20° 288° (WNW) 00:01:15 437.425
O/OREOS (USA 219) 21 Nov 23:55:50 23:58:47 17° 66° (ENE) 00:01:42 437.305
TIGRISAT 21 Nov 23:59:08 00:02:15 20° 288° (WNW) 00:05:22 435.000
LO-87 22 Nov 00:05:27 00:09:03 73° 259° (W) 00:12:39 145.935 - 145.965
QB50P2 22 Nov 00:13:48 00:16:12 15° 96° (E) 00:18:37 145.880/145.840
SRMSAT 22 Nov 00:21:27 00:25:31 19° 199° (SSW) 00:29:36 437.500
ESTCUBE 1 22 Nov 00:23:39 00:28:05 71° 258° (WSW) 00:32:34 437.505/2401.250
NO-84 22 Nov 00:25:48 00:30:04 84° 53° (NE) 00:34:10 435.350 FM
PCSat 22 Nov 00:38:26 00:43:47 68° 111° (ESE) 00:49:10 145.827
PRISM 22 Nov 00:42:08 00:44:51 17° 289° (WNW) 00:47:35 437.425
VELOX 1 22 Nov 00:42:10 00:45:30 21° 72° (ENE) 00:48:51 145.980
AIST 2D 22 Nov 00:43:15 00:46:39 49° 283° (WNW) 00:50:05 435.315
DUCHIFAT 1 22 Nov 01:00:53 01:04:49 41° 100° (E) 01:08:44 145.980
EO-79 22 Nov 01:08:55 01:13:06 77° 101° (E) 01:17:16 145.935-145.965
NANOSAT C BR1 22 Nov 01:11:41 01:15:51 71° 102° (ESE) 01:19:59 145.865
POLYITAN 1 22 Nov 01:24:28 01:28:37 65° 283° (WNW) 01:32:44 437.675
DX 1 22 Nov 01:26:38 01:28:46 13° 70° (ENE) 01:30:53 434.975-435.025
SPROUT 22 Nov 01:32:58 01:37:05 46° 260° (W) 01:41:13 437.525
O/OREOS (USA 219) 22 Nov 01:34:15 01:38:07 28° 258° (WSW) 01:41:58 437.305
50 SAT 22 Nov 01:41:32 01:43:47 18° 73° (ENE) 01:46:02 437.505
QB50P2 22 Nov 01:48:22 01:51:55 27° 287° (WNW) 01:55:28 145.880/145.840
BUGSAT 1 22 Nov 01:50:42 01:54:21 33° 99° (E) 01:57:58 437.445
UKube-1 22 Nov 02:05:37 02:09:05 24° 72° (ENE) 02:12:34 .
BEESAT 3 22 Nov 02:11:06 02:13:27 15° 109° (ESE) 02:15:51 437.485
VELOX 1 22 Nov 02:18:17 02:21:44 22° 262° (W) 02:25:12 145.980
Oscar 19 22 Nov 02:22:55 02:27:49 43° 100° (E) 02:32:42 437.125/150
PCSat 22 Nov 02:25:44 02:27:34 12° 304° (NW) 02:29:24 145.827
Gurwin Techsat 1B 22 Nov 02:54:13 02:59:30 65° 102° (ESE) 03:04:45 435.225
M-CUBED/EXP-1 PRIME 22 Nov 02:59:25 03:01:39 13° 99° (E) 03:03:51 437.505
DX 1 22 Nov 03:00:35 03:04:33 35° 260° (W) 03:08:33 434.975-435.025
50 SAT 22 Nov 03:14:23 03:15:44 12° 264° (W) 03:17:04 437.505
BEESAT 22 Nov 03:18:52 03:22:27 21° 71° (ENE) 03:26:01 436.000
BEESAT 2 22 Nov 03:23:16 03:26:44 29° 111° (ESE) 03:30:15 435.950
BUGSAT 1 22 Nov 03:28:05 03:29:18 11° 290° (WNW) 03:30:32 437.445
ITUPSAT 1 22 Nov 03:28:39 03:32:40 27° 72° (ENE) 03:36:40 437.325
MOZHAYETS 4 22 Nov 03:32:54 03:37:10 41° 75° (ENE) 03:41:26
UKube-1 22 Nov 03:41:57 03:44:58 18° 263° (W) 03:47:59 .
BEESAT 3 22 Nov 03:47:22 03:50:43 26° 300° (WNW) 03:54:05 437.485
CUBESAT XI-V 22 Nov 03:49:52 03:51:10 11° 69° (ENE) 03:52:28 437.345
